Location: Oberkirch
(48.5323°N, 8.0787°E)
Time: 01:11:06
(UTC+00:00)

CUTE 1.7 + AOD 2 - Pass Details

Date: 18 March 2026
Orbit: 535 x 545 km, 97.8° (Epoch: 14 April)

Event Time Altitude Azimuth Distance (km) Brightness Sun altitude
Rises 03:50:09 0° 15° (NNE) 2,722 ? -17.9°
Reaches altitude 10° 03:52:18 10° 18° (NNE) 1,825 ? -17.6°
Maximum altitude 03:56:13 68° 102° (ESE) 592 ? -16.9°
Drops below altitude 10° 04:00:07 10° 186° (S) 1,811 ? -16.3°
Enters shadow 04:00:50 - 187° (S) 2,105 ? -16.2°
